[[{"header":{"parameterUnit":"m.s-1","parameterCategory":2,"la1":30.2991,"la2":30.254,"lo1":-89.0895,"lo2":-89.0444,"dy":0.0017,"dx":0.0017,"nx":28,"ny":28,"refTime":"2025-12-04T03:00:00:Z","depth":"0","parameterNumber":2,"parameterNumberName":"U-component_of_CURRENTS"},"data":[0,0,0,0,0,0,0,0,0,0,0,0,0,0,0,0,0,0,0,0,0,0,0,0,0,0,0,0,0,0,0,0,0,0,0,0,0,0,0,0,0,0,0,0,0,0,0,0,0,0,0,0,0,0,0,0,0,0,-0.359,-0.359,0,-0.3552,-0.3551,-0.355,-0.3511,-0.3511,-0.3511,-0.351,-0.3437,-0.3435,-0.3433,0,0,0,0,0,0,0,0,0,0,0,0,0,-0.3643,-0.3642,-0.359,-0.359,-0.359,-0.3552,-0.3551,-0.355,-0.3511,-0.3511,-0.3511,-0.351,-0.3437,-0.3435,-0.3433,0,0,0,0,0,0,0,0,0,0,0,0,0,-0.3611,-0.3642,-0.359,-0.3568,-0.3566,-0.3552,-0.3551,-0.355,-0.3511,-0.3511,-0.351,-0.351,-0.3438,-0.3436,-0.3433,-0.3424,0,0,-0.3425,-0.3424,0,0,0,0,0,0,0,0,-0.3613,-0.3609,-0.3572,-0.357,-0.3567,-0.3538,-0.3543,-0.3507,-0.3511,-0.3529,-0.351,-0.351,-0.347,-0.3465,-0.3454,-0.3421,-0.3418,-0.3425,-0.3423,-0.3422,-0.3421,0,0,0,0,0,0,0,-0.3615,-0.361,-0.3572,-0.3571,-0.3569,-0.3565,-0.3559,-0.3536,-0.3499,-0.3527,-0.3525,-0.3526,-0.3468,-0.3457,-0.3452,-0.3417,-0.3425,-0.3423,-0.3421,-0.342,-0.34,-0.3401,0,0,0,0,0,0,-0.3626,-0.3612,-0.3573,-0.3571,-0.3593,-0.3564,-0.3558,-0.3546,-0.35,-0.3494,-0.3526,-0.3524,-0.3462,-0.3455,-0.3449,-0.345,-0.3422,-0.342,-0.3418,-0.3399,-0.34,-0.3401,0,0,0,0,0,0,-0.3627,-0.3622,-0.3575,-0.3594,-0.3588,-0.3564,-0.355,-0.3545,-0.3532,-0.35,-0.3492,-0.3519,-0.3461,-0.3453,-0.3438,-0.3446,-0.3419,-0.3416,-0.3398,-0.3399,-0.3401,-0.3442,0,0,0,0,0,0,-0.3628,-0.3622,-0.3614,-0.3594,-0.3588,-0.3567,-0.3551,-0.3545,-0.3535,-0.3531,-0.3491,-0.3484,-0.346,-0.3443,-0.3436,-0.3442,-0.3414,-0.3396,-0.3398,-0.34,-0.3439,-0.3445,-0.3449,0,0,0,0,0,-0.363,-0.3608,-0.3614,-0.3609,-0.3578,-0.3567,-0.3563,-0.3543,-0.3535,-0.3529,-0.3511,-0.3485,-0.345,-0.3441,-0.3433,-0.3439,-0.3395,-0.3398,-0.34,-0.3437,-0.3444,-0.3449,0,0,0,0,0,0,-0.3629,-0.3602,-0.3608,-0.3581,-0.3582,-0.3562,-0.3545,-0.3546,-0.3526,-0.3519,-0.3492,-0.3484,-0.3477,-0.3456,-0.3447,-0.3442,-0.3421,-0.3422,-0.3452,-0.3458,-0.3462,-0.3463,-0.3412,0,0,0,0,0,-0.3629,-0.3601,-0.3598,-0.358,-0.3575,-0.3566,-0.3558,-0.3554,-0.3538,-0.3528,-0.3508,-0.349,-0.3481,-0.3467,-0.3453,-0.3443,-0.3415,-0.3445,-0.345,-0.3454,-0.3452,-0.3433,-0.3435,-0.3409,-0.3409,-0.3409,0,0,-0.363,-0.3607,-0.3597,-0.3578,-0.3567,-0.3568,-0.3558,-0.3546,-0.3555,-0.3523,-0.3515,-0.3504,-0.3485,-0.348,-0.3475,-0.346,-0.3446,-0.3457,-0.3461,-0.3456,-0.3435,-0.3438,-0.344,-0.341,-0.341,-0.341,0,0,-0.3602,-0.3593,-0.3559,-0.3565,-0.3556,-0.356,-0.3562,-0.3553,-0.3552,-0.3553,-0.3541,-0.3537,-0.3512,-0.3506,-0.3499,-0.3522,-0.3477,-0.3521,-0.3537,-0.3519,-0.352,-0.3521,-0.3478,-0.3475,-0.3518,-0.3518,-0.3518,0,-0.3606,-0.3566,-0.3554,-0.3536,-0.3546,-0.356,-0.3558,-0.3565,-0.356,-0.3565,-0.3554,-0.3542,-0.3525,-0.3528,-0.3541,-0.3532,-0.3506,-0.3513,-0.3524,-0.3524,-0.3525,-0.348,-0.3476,-0.352,-0.352,-0.3519,-0.3519,0,-0.3546,-0.3545,-0.3527,-0.3515,-0.3529,-0.3527,-0.3554,-0.3568,-0.3575,-0.3583,-0.3589,-0.3574,-0.3564,-0.3567,-0.3558,-0.3562,-0.3537,-0.3536,-0.3505,-0.353,-0.3481,-0.3477,-0.3523,-0.3522,-0.3522,-0.3521,0,0,-0.347,-0.3485,-0.3478,-0.3497,-0.3522,-0.3527,-0.3559,-0.3584,-0.3601,-0.3605,-0.3614,-0.3613,-0.3607,-0.36,-0.3592,-0.3581,-0.3561,-0.3561,-0.3559,-0.3511,-0.35,-0.3413,-0.3398,-0.3561,-0.3561,-0.3561,-0.3461,0,-0.3428,-0.3409,-0.3429,-0.3452,-0.3458,-0.3514,-0.3545,-0.3581,-0.3606,-0.3623,-0.3624,-0.3626,-0.362,-0.3615,-0.3606,-0.3583,-0.3552,-0.3587,-0.3489,-0.3486,-0.34,-0.3391,-0.3267,-0.3162,-0.3456,-0.3455,-0.3454,0,-0.3337,-0.3352,-0.3359,-0.3438,-0.3444,-0.3467,-0.3528,-0.3562,-0.3609,-0.3626,-0.3639,-0.3641,-0.3639,-0.3625,-0.3579,-0.3601,-0.3549,-0.3521,-0.3516,-0.3415,-0.3389,-0.3188,-0.3142,-0.3118,-0.3446,-0.3447,-0.3448,0,-0.3254,-0.3298,-0.3309,-0.3332,-0.3417,-0.3438,-0.3485,-0.3546,-0.3576,-0.3623,-0.3636,-0.3643,-0.3629,-0.3595,-0.3544,-0.356,-0.3475,-0.3486,-0.3348,-0.3341,-0.3205,-0.3185,-0.3115,-0.3428,-0.3428,-0.3428,-0.3428,0,-0.3181,-0.319,-0.3273,-0.3282,-0.3309,-0.339,-0.3421,-0.3475,-0.3542,-0.3564,-0.3621,-0.3622,-0.3621,-0.3581,-0.3538,-0.3419,-0.3461,-0.3337,-0.3308,-0.3214,-0.3198,-0.3147,-0.3176,-0.3424,-0.3425,-0.3426,-0.3426,0,-0.3067,-0.3122,-0.3146,-0.3239,-0.3264,-0.3279,-0.3375,-0.3401,-0.3483,-0.3513,-0.3526,-0.3586,-0.354,-0.3511,-0.3442,-0.3382,-0.3233,-0.3238,-0.3116,-0.3074,-0.2928,-0.2964,-0.2851,-0.2769,-0.3071,-0.3068,-0.3066,0,-0.2994,-0.2994,-0.3084,-0.3098,-0.3133,-0.3183,-0.3215,-0.3336,-0.3376,-0.3477,-0.3477,-0.3472,-0.3426,-0.3306,-0.3213,-0.3091,-0.3098,-0.2909,-0.2918,-0.2886,-0.2906,-0.2937,-0.2879,-0.2749,-0.2744,-0.274,-0.2737,0,-0.2863,-0.2896,-0.2923,-0.2962,-0.2995,-0.304,-0.3104,-0.313,-0.3266,-0.3295,-0.3313,-0.3288,-0.3209,-0.3047,-0.2918,-0.2838,-0.2843,-0.2824,-0.2823,-0.2668,-0.2663,-0.258,-0.2848,-0.2702,-0.2706,-0.2708,-0.271,-0.2712,-0.2742,-0.2734,-0.2773,-0.2792,-0.2835,-0.2853,-0.2831,-0.2922,-0.2943,-0.2956,-0.3068,-0.2995,-0.2928,-0.2731,-0.2647,-0.2484,-0.2565,-0.242,-0.2469,-0.2506,-0.2418,-0.2598,-0.2409,-0.2411,-0.2412,-0.2414,-0.2415,0,-0.2572,-0.2587,-0.2602,-0.2618,-0.2592,-0.2676,-0.2713,-0.2662,-0.262,-0.2696,-0.2677,-0.2638,-0.2474,-0.2432,-0.229,-0.2176,-0.2129,-0.2134,-0.216,-0.2119,-0.2284,-0.2261,-0.1992,-0.1992,-0.1992,-0.1992,-0.1992,-0.1992,-0.2482,-0.2434,-0.245,-0.2353,-0.2362,-0.2264,-0.224,-0.2197,-0.221,-0.2151,-0.2177,-0.2249,-0.2243,-0.2345,-0.2171,-0.2055,-0.2011,-0.1941,-0.1979,-0.2129,-0.2161,-0.2192,-0.2176,-0.1893,-0.1893,-0.1731,-0.173,-0.1729]},{"header":{"parameterUnit":"m.s-1","parameterCategory":2,"la1":30.2991,"la2":30.254,"lo1":-89.0895,"lo2":-89.0444,"dy":0.0017,"dx":0.0017,"nx":28,"ny":28,"refTime":"2025-12-04T03:00:00:Z","depth":"0","parameterNumber":3,"parameterNumberName":"V-component_of_CURRENTS"},"data":[0,0,0,0,0,0,0,0,0,0,0,0,0,0,0,0,0,0,0,0,0,0,0,0,0,0,0,0,0,0,0,0,0,0,0,0,0,0,0,0,0,0,0,0,0,0,0,0,0,0,0,0,0,0,0,0,0,0,-0.0417,-0.0415,0,-0.027,-0.0268,-0.0266,-0.0185,-0.0185,-0.0185,-0.0185,-0.0017,-0.0013,-0.0009,0,0,0,0,0,0,0,0,0,0,0,0,0,-0.0577,-0.0575,-0.0417,-0.0415,-0.0413,-0.027,-0.0268,-0.0266,-0.0185,-0.0185,-0.0185,-0.0185,-0.0018,-0.0013,-0.0008,0,0,0,0,0,0,0,0,0,0,0,0,0,-0.0477,-0.0574,-0.0417,-0.0356,-0.0349,-0.027,-0.0268,-0.0265,-0.0185,-0.0185,-0.0185,-0.0184,-0.002,-0.0014,-0.0008,0.0025,0,0,0.0012,0.0015,0,0,0,0,0,0,0,0,-0.0483,-0.0471,-0.0367,-0.036,-0.0352,-0.0245,-0.0263,-0.0167,-0.0185,-0.0247,-0.0185,-0.0184,-0.0092,-0.008,-0.0053,0.0033,0.004,0.0012,0.0016,0.0019,0.0021,0,0,0,0,0,0,0,-0.049,-0.0476,-0.0359,-0.0365,-0.0356,-0.0318,-0.0304,-0.0244,-0.0173,-0.0242,-0.0236,-0.0219,-0.0088,-0.0059,-0.0048,0.0043,0.0012,0.0018,0.0022,0.0024,0.0174,0.0174,0,0,0,0,0,0,-0.051,-0.0483,-0.0363,-0.0354,-0.0418,-0.0316,-0.03,-0.028,-0.0174,-0.0157,-0.022,-0.0216,-0.007,-0.0056,-0.0042,0.0003,0.0019,0.0025,0.0029,0.0174,0.0174,0.0174,0,0,0,0,0,0,-0.0514,-0.0501,-0.0369,-0.0416,-0.0396,-0.0314,-0.0292,-0.0277,-0.0249,-0.0157,-0.014,-0.0207,-0.0069,-0.0051,0.0008,0.001,0.0028,0.0034,0.0174,0.0174,0.0174,0.0094,0,0,0,0,0,0,-0.052,-0.0503,-0.05,-0.0417,-0.0394,-0.0332,-0.0292,-0.0275,-0.0239,-0.0233,-0.014,-0.0124,-0.0068,-0.0002,0.0015,0.0019,0.0039,0.0174,0.0174,0.0174,0.0096,0.0091,0.0087,0,0,0,0,0,-0.0526,-0.0522,-0.0501,-0.0487,-0.0391,-0.0333,-0.0318,-0.0258,-0.024,-0.0231,-0.0167,-0.0127,0.0012,0.0004,0.0023,0.0029,0.0174,0.0174,0.0174,0.0098,0.0092,0.0087,0,0,0,0,0,0,-0.0592,-0.0511,-0.0486,-0.0459,-0.0406,-0.0319,-0.0304,-0.0266,-0.0208,-0.0204,-0.0122,-0.0101,-0.005,0.0001,-0.0011,0.0073,0.0098,0.0102,0.0034,0.0029,0.0024,0.0002,0.0044,0,0,0,0,0,-0.0606,-0.0582,-0.0504,-0.0485,-0.0461,-0.0387,-0.0357,-0.0317,-0.0253,-0.0228,-0.0162,-0.0094,-0.0032,0.0004,0.0064,0.0112,0.0167,0.0128,0.0123,0.0119,0.0114,0.0199,0.0201,0.0176,0.0176,0.0176,0,0,-0.0629,-0.058,-0.0568,-0.0498,-0.0452,-0.0425,-0.0368,-0.0329,-0.0305,-0.0218,-0.0172,-0.0109,-0.0024,0.0028,0.0056,0.0071,0.0155,0.0119,0.0115,0.0113,0.0199,0.0202,0.0204,0.0176,0.0176,0.0176,0,0,-0.0661,-0.0619,-0.0609,-0.0572,-0.0508,-0.0459,-0.0454,-0.0373,-0.0336,-0.0284,-0.0216,-0.0153,-0.0062,0.0004,0.0048,0.0054,0.0124,0.007,0.0035,0.0117,0.012,0.0123,0.0192,0.0202,0.0071,0.0071,0.0071,0,-0.0695,-0.0667,-0.0601,-0.0585,-0.0563,-0.0482,-0.0477,-0.0424,-0.0336,-0.0303,-0.0283,-0.0138,-0.0072,0.0008,0.0007,0.0044,0.0095,0.0047,0.011,0.0114,0.0119,0.019,0.0202,0.0067,0.0068,0.0068,0.0069,0,-0.0712,-0.0699,-0.0694,-0.0646,-0.0615,-0.0599,-0.0523,-0.0485,-0.0435,-0.0374,-0.0293,-0.0196,-0.0109,-0.0078,-0.0033,0.0033,0.0061,0.0089,0.0119,0.0116,0.0192,0.0205,0.0062,0.0063,0.0064,0.0065,0,0,-0.0769,-0.0718,-0.0718,-0.0717,-0.0651,-0.0628,-0.059,-0.0523,-0.0493,-0.0406,-0.0355,-0.0247,-0.0189,-0.0137,-0.0063,0.0007,0.0081,0.005,0.0056,0.011,0.0255,0.0304,0.0325,0.0119,0.0121,0.0123,0.0292,0,-0.0807,-0.081,-0.0763,-0.0772,-0.0772,-0.0697,-0.067,-0.0601,-0.0526,-0.0456,-0.0341,-0.0269,-0.0211,-0.0172,-0.0091,0.0041,0.0114,0.0032,0.0258,0.0265,0.0302,0.0342,0.039,0.0549,0.0307,0.0309,0.0311,0,-0.0836,-0.0838,-0.0859,-0.0841,-0.0832,-0.0822,-0.0763,-0.0723,-0.0602,-0.0544,-0.0443,-0.0349,-0.0225,-0.0185,0.004,-0.0017,0.0105,0.0205,0.0215,0.0299,0.0341,0.0516,0.0584,0.0765,0.0333,0.0331,0.0329,0,-0.0911,-0.0903,-0.0927,-0.0922,-0.0884,-0.0878,-0.085,-0.0754,-0.0718,-0.0595,-0.0549,-0.0389,-0.0305,-0.0133,0.0079,0.006,0.0327,0.0336,0.0498,0.0502,0.0608,0.0619,0.0872,0.0489,0.0489,0.0488,0.0488,0,-0.0967,-0.0985,-0.0968,-0.0984,-0.1015,-0.0956,-0.0952,-0.0893,-0.0803,-0.0754,-0.0604,-0.052,-0.029,-0.0105,0.0075,0.0341,0.0336,0.0504,0.0558,0.0581,0.0587,0.08,0.086,0.0494,0.0493,0.0492,0.0491,0,-0.1037,-0.1023,-0.1057,-0.1049,-0.1051,-0.1072,-0.1041,-0.1026,-0.0927,-0.0855,-0.0822,-0.0609,-0.0359,-0.0109,0.0188,0.0341,0.0709,0.0674,0.0679,0.073,0.1023,0.1075,0.1373,0.1478,0.0874,0.0877,0.0879,0,-0.1067,-0.1093,-0.1124,-0.1157,-0.1158,-0.1176,-0.1185,-0.1106,-0.1078,-0.0896,-0.0865,-0.0615,-0.0408,0.0053,0.0369,0.0712,0.0843,0.0935,0.0909,0.1066,0.1163,0.1196,0.1264,0.1022,0.1025,0.1027,0.1029,0,-0.1132,-0.1142,-0.1174,-0.1256,-0.1288,-0.1313,-0.1311,-0.1311,-0.1192,-0.1087,-0.0898,-0.0713,-0.0255,0.0165,0.0599,0.0805,0.1073,0.0994,0.1177,0.132,0.1356,0.1473,0.0869,0.1051,0.1049,0.1047,0.1046,0.1045,-0.1173,-0.1224,-0.1274,-0.1344,-0.139,-0.1428,-0.1436,-0.1394,-0.1321,-0.1125,-0.094,-0.0598,-0.001,0.0623,0.0853,0.1335,0.1278,0.1472,0.1528,0.1552,0.1642,0.1073,0.1295,0.1294,0.1294,0.1293,0.1293,0,-0.1217,-0.1275,-0.1358,-0.1433,-0.1493,-0.1491,-0.1496,-0.1451,-0.135,-0.1113,-0.0871,-0.0186,0.0396,0.0926,0.1593,0.1851,0.1902,0.1981,0.2053,0.2101,0.1636,0.163,0.1911,0.1911,0.1911,0.191,0.191,0.191,-0.1242,-0.1328,-0.1376,-0.1491,-0.1543,-0.1572,-0.1564,-0.1459,-0.1282,-0.0863,-0.0456,-0.0127,0.0623,0.168,0.2284,0.2343,0.2553,0.2548,0.2648,0.2332,0.2288,0.2246,0.2259,0.2667,0.2667,0.3104,0.3108,0.3111]}],[{"header":{"parameterUnit":"m.s-1","parameterCategory":2,"la1":30.2991,"la2":30.254,"lo1":-89.0895,"lo2":-89.0444,"dy":0.0017,"dx":0.0017,"nx":28,"ny":28,"refTime":"2025-12-04T03:00:00:Z","depth":"2","parameterNumber":2,"parameterNumberName":"U-component_of_CURRENTS"},"data":[0,0,0,0,0,0,0,0,0,0,0,0,0,0,0,0,0,0,0,0,0,0,0,0,0,0,0,0,0,0,0,0,0,0,0,0,0,0,0,0,0,0,0,0,0,0,0,0,0,0,0,0,0,0,0,0,0,0,-0.2953,-0.2953,0,-0.2973,-0.2973,-0.2973,-0.2957,-0.2956,-0.2956,-0.2956,-0.2924,-0.2924,-0.2923,0,0,0,0,0,0,0,0,0,0,0,0,0,-0.2849,-0.2851,-0.2953,-0.2954,-0.2954,-0.2973,-0.2973,-0.2973,-0.2957,-0.2956,-0.2956,-0.2956,-0.2925,-0.2924,-0.2923,0,0,0,0,0,0,0,0,0,0,0,0,0,-0.2881,-0.2852,-0.2953,-0.2951,-0.2952,-0.2973,-0.2973,-0.2973,-0.2957,-0.2956,-0.2956,-0.2956,-0.2925,-0.2924,-0.2923,-0.2928,0,0,-0.2921,-0.292,0,0,0,0,0,0,0,0,-0.2879,-0.2884,-0.2951,-0.2952,-0.2952,-0.2965,-0.2925,-0.2957,-0.2957,-0.2951,-0.2956,-0.2955,-0.2936,-0.2935,-0.2934,-0.2926,-0.2925,-0.2921,-0.292,-0.292,-0.292,0,0,0,0,0,0,0,-0.2877,-0.2883,-0.2957,-0.2952,-0.2952,-0.2932,-0.2936,-0.2931,-0.2942,-0.2951,-0.2951,-0.296,-0.2936,-0.2935,-0.2933,-0.2924,-0.2921,-0.292,-0.2919,-0.2919,-0.2943,-0.2944,0,0,0,0,0,0,-0.2886,-0.2881,-0.2956,-0.2958,-0.2918,-0.2935,-0.2939,-0.2958,-0.2943,-0.2942,-0.296,-0.2959,-0.2937,-0.2934,-0.2932,-0.2955,-0.292,-0.2919,-0.2919,-0.2942,-0.2943,-0.2945,0,0,0,0,0,0,-0.2884,-0.2893,-0.2955,-0.2922,-0.2929,-0.2938,-0.2959,-0.2959,-0.2965,-0.2951,-0.2948,-0.2968,-0.2936,-0.2933,-0.2939,-0.2953,-0.2919,-0.2918,-0.2941,-0.2942,-0.2944,-0.2989,0,0,0,0,0,0,-0.2881,-0.2892,-0.2905,-0.2923,-0.2932,-0.2975,-0.296,-0.296,-0.2973,-0.2972,-0.2957,-0.2953,-0.2936,-0.294,-0.2938,-0.2951,-0.2917,-0.2939,-0.2941,-0.2943,-0.2986,-0.2992,-0.2997,0,0,0,0,0,-0.2877,-0.2898,-0.2906,-0.2915,-0.2951,-0.2976,-0.2978,-0.2979,-0.2974,-0.2982,-0.2974,-0.2954,-0.2952,-0.294,-0.2938,-0.2951,-0.2938,-0.2941,-0.2943,-0.2984,-0.2991,-0.2997,0,0,0,0,0,0,-0.2857,-0.29,-0.2908,-0.2941,-0.2961,-0.2975,-0.2982,-0.2987,-0.2988,-0.2984,-0.2967,-0.2963,-0.2974,-0.296,-0.2948,-0.2966,-0.2942,-0.2944,-0.2974,-0.2981,-0.2986,-0.2986,-0.2917,0,0,0,0,0,-0.2863,-0.2888,-0.2923,-0.2946,-0.2959,-0.2973,-0.2982,-0.2988,-0.2995,-0.2995,-0.2988,-0.2982,-0.2983,-0.2979,-0.2977,-0.2984,-0.296,-0.2993,-0.2998,-0.3003,-0.3002,-0.2989,-0.2993,-0.2953,-0.2953,-0.2953,0,0,-0.2858,-0.2887,-0.29,-0.2944,-0.2956,-0.2979,-0.2976,-0.2997,-0.3014,-0.2991,-0.3005,-0.3002,-0.2991,-0.3002,-0.3005,-0.299,-0.3001,-0.3006,-0.301,-0.3007,-0.2992,-0.2996,-0.2999,-0.2955,-0.2954,-0.2954,0,0,-0.2858,-0.2893,-0.291,-0.2935,-0.2969,-0.2984,-0.2996,-0.302,-0.3028,-0.3046,-0.3037,-0.3044,-0.3042,-0.304,-0.3037,-0.3072,-0.3034,-0.3073,-0.3096,-0.3084,-0.3086,-0.3088,-0.3056,-0.3055,-0.3072,-0.3072,-0.3072,0,-0.2848,-0.2883,-0.2916,-0.2941,-0.2962,-0.299,-0.301,-0.303,-0.3052,-0.3061,-0.3055,-0.3066,-0.306,-0.3073,-0.3088,-0.3084,-0.3062,-0.307,-0.3089,-0.3091,-0.3092,-0.3059,-0.3057,-0.3075,-0.3075,-0.3074,-0.3074,0,-0.2858,-0.2891,-0.2904,-0.2949,-0.2976,-0.3,-0.304,-0.3065,-0.308,-0.3094,-0.3116,-0.3112,-0.3115,-0.3122,-0.3115,-0.3129,-0.3105,-0.3099,-0.3069,-0.3099,-0.3062,-0.3059,-0.3078,-0.3077,-0.3077,-0.3076,0,0,-0.2813,-0.2894,-0.2896,-0.2921,-0.2984,-0.3005,-0.3049,-0.3089,-0.3112,-0.3133,-0.3152,-0.3167,-0.3166,-0.3164,-0.316,-0.3155,-0.3149,-0.3135,-0.3133,-0.3096,-0.3105,-0.3014,-0.3001,-0.3145,-0.3145,-0.3145,-0.3072,0,-0.2804,-0.2848,-0.2896,-0.2938,-0.2963,-0.3019,-0.3057,-0.31,-0.3132,-0.316,-0.3171,-0.3185,-0.3182,-0.3184,-0.3183,-0.3165,-0.3145,-0.3168,-0.3087,-0.3084,-0.2995,-0.2997,-0.2782,-0.2692,-0.3069,-0.3068,-0.3068,0,-0.2782,-0.2823,-0.286,-0.2938,-0.2954,-0.2983,-0.3049,-0.309,-0.3147,-0.3171,-0.3196,-0.3204,-0.3216,-0.3203,-0.3176,-0.319,-0.3149,-0.3127,-0.3123,-0.3019,-0.2988,-0.2726,-0.2673,-0.3063,-0.3063,-0.3064,-0.3064,0,-0.2714,-0.2791,-0.282,-0.2846,-0.2939,-0.2964,-0.3012,-0.308,-0.3114,-0.3175,-0.3193,-0.3215,-0.3212,-0.319,-0.3153,-0.3163,-0.3104,-0.3108,-0.2981,-0.2973,-0.2764,-0.2737,-0.3068,-0.3068,-0.3068,-0.3069,-0.3069,0,-0.2676,-0.2696,-0.2789,-0.2805,-0.2838,-0.2922,-0.296,-0.3017,-0.3091,-0.3118,-0.3184,-0.3192,-0.3208,-0.3183,-0.315,-0.3049,-0.3095,-0.2975,-0.2948,-0.2773,-0.275,-0.3055,-0.3054,-0.3066,-0.3066,-0.3067,-0.3068,0,-0.2582,-0.2649,-0.2683,-0.2777,-0.2802,-0.2822,-0.2918,-0.2947,-0.3036,-0.3073,-0.3091,-0.3161,-0.313,-0.312,-0.3073,-0.302,-0.2952,-0.2898,-0.2685,-0.2634,-0.2829,-0.2832,-0.2751,-0.2748,-0.2744,-0.2742,-0.2739,0,-0.2534,-0.2542,-0.263,-0.2645,-0.2683,-0.2736,-0.2768,-0.2889,-0.2926,-0.3037,-0.3038,-0.3052,-0.301,-0.292,-0.2839,-0.2739,-0.284,-0.2492,-0.2476,-0.2815,-0.2797,-0.2805,-0.2812,-0.2211,-0.2205,-0.22,-0.2195,0,-0.2428,-0.246,-0.2489,-0.2524,-0.2557,-0.2599,-0.2662,-0.2682,-0.2817,-0.2844,-0.2864,-0.2843,-0.2788,-0.2594,-0.2494,-0.2417,-0.25,-0.2381,-0.277,-0.2337,-0.2303,-0.2287,-0.2312,-0.2148,-0.2153,-0.2157,-0.2159,-0.2161,-0.2326,-0.2319,-0.2355,-0.2371,-0.2411,-0.2421,-0.2396,-0.2474,-0.2486,-0.249,-0.2603,-0.2501,-0.2489,-0.2214,-0.2101,-0.2021,-0.2191,-0.2096,-0.2113,-0.2135,-0.2099,-0.2062,-0.1854,-0.1856,-0.1859,-0.1861,-0.1863,0,-0.2183,-0.2191,-0.22,-0.2211,-0.2183,-0.2262,-0.2285,-0.2225,-0.2165,-0.2209,-0.2184,-0.1956,-0.1824,-0.1824,-0.1625,-0.1587,-0.1579,-0.1525,-0.1519,-0.1565,-0.1606,-0.1545,-0.1151,-0.1149,-0.1147,-0.1146,0,0,-0.2106,-0.2057,-0.2062,-0.1963,-0.197,-0.1874,-0.1842,-0.1779,-0.1761,-0.1644,-0.1596,-0.172,-0.176,-0.1458,-0.1388,-0.1238,-0.1388,-0.1173,-0.1741,-0.1778,-0.1817,-0.1928,-0.1884,0,0,0,0,0]},{"header":{"parameterUnit":"m.s-1","parameterCategory":2,"la1":30.2991,"la2":30.254,"lo1":-89.0895,"lo2":-89.0444,"dy":0.0017,"dx":0.0017,"nx":28,"ny":28,"refTime":"2025-12-04T03:00:00:Z","depth":"2","parameterNumber":3,"parameterNumberName":"V-component_of_CURRENTS"},"data":[0,0,0,0,0,0,0,0,0,0,0,0,0,0,0,0,0,0,0,0,0,0,0,0,0,0,0,0,0,0,0,0,0,0,0,0,0,0,0,0,0,0,0,0,0,0,0,0,0,0,0,0,0,0,0,0,0,0,-0.0388,-0.0386,0,-0.0262,-0.0261,-0.0259,-0.0188,-0.0188,-0.0188,-0.0187,-0.0036,-0.0032,-0.0029,0,0,0,0,0,0,0,0,0,0,0,0,0,-0.0487,-0.0486,-0.0388,-0.0386,-0.0385,-0.0262,-0.026,-0.0259,-0.0188,-0.0188,-0.0187,-0.0187,-0.0037,-0.0033,-0.0028,0,0,0,0,0,0,0,0,0,0,0,0,0,-0.0411,-0.0485,-0.0388,-0.0335,-0.0329,-0.0263,-0.026,-0.0258,-0.0188,-0.0188,-0.0187,-0.0187,-0.0039,-0.0033,-0.0028,0.0002,0,0,-0.001,-0.0007,0,0,0,0,0,0,0,0,-0.0415,-0.0407,-0.0344,-0.0339,-0.0332,-0.0241,-0.024,-0.017,-0.0188,-0.0241,-0.0187,-0.0187,-0.0103,-0.0092,-0.0068,0.0009,0.0016,-0.0009,-0.0006,-0.0003,-0.0002,0,0,0,0,0,0,0,-0.0421,-0.0411,-0.0338,-0.0343,-0.0335,-0.029,-0.028,-0.0226,-0.0174,-0.0236,-0.0231,-0.0218,-0.0099,-0.0074,-0.0064,0.0018,-0.001,-0.0004,-0.0001,0.0001,0.0138,0.0138,0,0,0,0,0,0,-0.0441,-0.0417,-0.0342,-0.0334,-0.0374,-0.0289,-0.0277,-0.027,-0.0175,-0.0161,-0.0218,-0.0215,-0.0084,-0.0071,-0.0059,-0.0017,-0.0004,0.0002,0.0005,0.0138,0.0138,0.0139,0,0,0,0,0,0,-0.0444,-0.0436,-0.0347,-0.0372,-0.0358,-0.0288,-0.028,-0.0268,-0.0243,-0.0162,-0.0147,-0.0207,-0.0083,-0.0067,-0.0013,-0.0011,0.0004,0.001,0.0138,0.0138,0.0138,0.0065,0,0,0,0,0,0,-0.0448,-0.0438,-0.0442,-0.0374,-0.0357,-0.0315,-0.028,-0.0265,-0.0235,-0.023,-0.0147,-0.0133,-0.0082,-0.0022,-0.0007,-0.0003,0.0014,0.0138,0.0138,0.0138,0.0067,0.0063,0.0059,0,0,0,0,0,-0.0452,-0.0458,-0.0443,-0.0434,-0.0365,-0.0316,-0.0303,-0.0251,-0.0236,-0.0228,-0.0171,-0.0135,-0.0009,-0.0017,0.0,0.0006,0.0138,0.0138,0.0138,0.0069,0.0064,0.0059,0,0,0,0,0,0,-0.0503,-0.0449,-0.0432,-0.0422,-0.0377,-0.0304,-0.0291,-0.0258,-0.0207,-0.0203,-0.013,-0.0111,-0.0065,-0.0019,-0.003,0.0047,0.0069,0.0073,0.0011,0.0006,0.0002,-0.0015,0.0019,0,0,0,0,0,-0.0518,-0.051,-0.0449,-0.0443,-0.0424,-0.0361,-0.0336,-0.0302,-0.0247,-0.0224,-0.0165,-0.0104,-0.0049,-0.0015,0.0038,0.0082,0.013,0.0097,0.0093,0.0089,0.0087,0.0158,0.016,0.014,0.014,0.014,0,0,-0.0537,-0.0507,-0.0502,-0.0454,-0.0415,-0.0394,-0.0345,-0.0313,-0.0293,-0.0215,-0.0174,-0.0118,-0.0042,0.0005,0.0031,0.0045,0.012,0.009,0.0086,0.0086,0.0159,0.0161,0.0163,0.014,0.014,0.014,0,0,-0.0567,-0.0544,-0.0544,-0.0514,-0.0464,-0.0423,-0.0419,-0.0351,-0.0319,-0.0273,-0.0214,-0.0157,-0.0075,-0.0016,0.0023,0.003,0.0091,0.0044,0.0017,0.0086,0.0088,0.0091,0.0149,0.0158,0.0047,0.0047,0.0047,0,-0.0594,-0.0586,-0.0537,-0.0528,-0.0512,-0.0443,-0.0441,-0.0395,-0.0319,-0.0291,-0.0272,-0.0144,-0.0083,-0.0013,-0.0012,0.0021,0.0065,0.0027,0.0079,0.0083,0.0087,0.0147,0.0157,0.0044,0.0044,0.0045,0.0045,0,-0.0617,-0.0615,-0.0613,-0.0583,-0.0558,-0.0546,-0.0483,-0.045,-0.0407,-0.0355,-0.0283,-0.0195,-0.0118,-0.0089,-0.0047,0.0012,0.0035,0.006,0.0087,0.0084,0.0148,0.016,0.0039,0.004,0.0041,0.0042,0,0,-0.0669,-0.0638,-0.0639,-0.0641,-0.0591,-0.0573,-0.0542,-0.0488,-0.0465,-0.0385,-0.0343,-0.0243,-0.0191,-0.0143,-0.0076,-0.0012,0.0052,0.0028,0.0033,0.0077,0.0199,0.0226,0.0243,0.0084,0.0085,0.0087,0.023,0,-0.0705,-0.0718,-0.0684,-0.0696,-0.0699,-0.0637,-0.0617,-0.0559,-0.0496,-0.0436,-0.0332,-0.0269,-0.0211,-0.0176,-0.0102,0.0014,0.008,0.001,0.0203,0.0209,0.0227,0.0257,0.0217,0.0342,0.0242,0.0244,0.0245,0,-0.0737,-0.0746,-0.077,-0.0761,-0.0756,-0.0749,-0.0706,-0.0673,-0.0571,-0.0521,-0.0431,-0.0346,-0.0233,-0.0192,0.0008,-0.0041,0.0068,0.0158,0.0166,0.0226,0.0259,0.0332,0.0368,0.0266,0.0264,0.0263,0.0261,0,-0.0803,-0.0805,-0.0831,-0.0829,-0.0803,-0.0801,-0.0781,-0.0703,-0.0676,-0.057,-0.0533,-0.0389,-0.0313,-0.0158,0.0033,0.0021,0.0251,0.0262,0.0393,0.0396,0.0418,0.042,0.0399,0.0399,0.0398,0.0398,0.0398,0,-0.0856,-0.0876,-0.0868,-0.0885,-0.0919,-0.0872,-0.0877,-0.0829,-0.0757,-0.0721,-0.0584,-0.0515,-0.0302,-0.014,0.0024,0.0252,0.0252,0.0397,0.0441,0.0391,0.0389,0.0366,0.036,0.0403,0.0402,0.0401,0.04,0,-0.0916,-0.0909,-0.0944,-0.0946,-0.0951,-0.0974,-0.0958,-0.0952,-0.0871,-0.0817,-0.0788,-0.0601,-0.0385,-0.016,0.0104,0.024,0.0451,0.0529,0.0452,0.0484,0.0548,0.0537,0.0685,0.0688,0.069,0.0691,0.0693,0,-0.0944,-0.097,-0.1005,-0.1039,-0.1044,-0.1067,-0.1083,-0.1023,-0.1006,-0.086,-0.0837,-0.0623,-0.0449,-0.0049,0.0222,0.0521,0.0523,0.0645,0.0619,0.0554,0.0581,0.0567,0.0553,0.0621,0.0622,0.0622,0.0623,0,-0.1002,-0.1013,-0.1045,-0.1124,-0.1161,-0.1191,-0.1199,-0.1207,-0.1115,-0.1034,-0.0882,-0.0728,-0.0346,-0.0021,0.0351,0.052,0.0592,0.0666,0.0645,0.0545,0.0503,0.0526,0.0513,0.0628,0.0627,0.0627,0.0627,0.0626,-0.1039,-0.1085,-0.1133,-0.1201,-0.125,-0.1294,-0.1307,-0.128,-0.123,-0.1075,-0.0931,-0.0656,-0.0358,0.0182,0.0442,0.0681,0.0678,0.0736,0.073,0.0725,0.0682,0.0645,0.0789,0.0789,0.0789,0.079,0.079,0,-0.1081,-0.1132,-0.1208,-0.1282,-0.134,-0.1346,-0.1363,-0.1328,-0.125,-0.1073,-0.0883,-0.0519,-0.0155,0.0166,0.0544,0.0762,0.0739,0.0795,0.0717,0.0711,0.0706,0.0659,0.0761,0.0762,0.0762,0.0763,0,0,-0.1105,-0.1181,-0.1221,-0.1329,-0.1382,-0.1418,-0.1418,-0.133,-0.1194,-0.099,-0.0777,-0.0512,-0.0132,0.0126,0.0397,0.0593,0.0595,0.0611,0.0612,0.0482,0.0474,0.0651,0.057,0,0,0,0,0]}],[{"header":{"parameterUnit":"m.s-1","parameterCategory":2,"la1":30.2991,"la2":30.254,"lo1":-89.0895,"lo2":-89.0444,"dy":0.0017,"dx":0.0017,"nx":28,"ny":28,"refTime":"2025-12-04T03:00:00:Z","depth":"4","parameterNumber":2,"parameterNumberName":"U-component_of_CURRENTS"},"data":[0,0,0,0,0,0,0,0,0,0,0,0,0,0,0,0,0,0,0,0,0,0,0,0,0,0,0,0,0,0,0,0,0,0,0,0,0,0,0,0,0,0,0,0,0,0,0,0,0,0,0,0,0,0,0,0,0,0,-0.1982,-0.1983,0,-0.2064,-0.2065,-0.2066,-0.2119,-0.2119,-0.212,-0.2121,-0.2185,-0.2186,-0.2187,0,0,0,0,0,0,0,0,0,0,0,0,0,-0.1809,-0.1812,-0.1982,-0.1984,-0.1985,-0.2064,-0.2065,-0.2066,-0.2119,-0.2119,-0.212,-0.2121,-0.2185,-0.2186,-0.2188,0,0,0,0,0,0,0,0,0,0,0,0,0,-0.1884,-0.1813,-0.1982,-0.2023,-0.2028,-0.2064,-0.2065,-0.2066,-0.2118,-0.2119,-0.212,-0.2121,-0.2184,-0.2186,-0.2188,-0.2179,0,0,-0.2193,-0.2194,0,0,0,0,0,0,0,0,-0.188,-0.189,-0.2016,-0.2021,-0.2026,-0.2085,-0.2028,-0.2104,-0.2118,-0.2081,-0.2121,-0.2122,-0.2152,-0.2156,-0.2165,-0.2182,-0.2185,-0.2193,-0.2194,-0.2195,-0.2195,0,0,0,0,0,0,0,-0.1875,-0.1886,-0.2011,-0.2017,-0.2023,-0.2017,-0.2028,-0.2042,-0.2107,-0.2084,-0.2089,-0.2103,-0.2154,-0.2163,-0.2167,-0.2186,-0.2193,-0.2194,-0.2196,-0.2196,-0.2296,-0.2298,0,0,0,0,0,0,-0.1874,-0.1882,-0.2009,-0.2014,-0.1957,-0.2019,-0.2033,-0.2062,-0.2107,-0.2116,-0.2102,-0.2105,-0.216,-0.2165,-0.2169,-0.2252,-0.2195,-0.2196,-0.2197,-0.2294,-0.2296,-0.2298,0,0,0,0,0,0,-0.187,-0.1885,-0.2006,-0.1951,-0.1967,-0.2022,-0.2055,-0.2064,-0.2113,-0.2122,-0.213,-0.2147,-0.2161,-0.2167,-0.2218,-0.2251,-0.2197,-0.2199,-0.2292,-0.2295,-0.2297,-0.2359,0,0,0,0,0,0,-0.1865,-0.1884,-0.1919,-0.1952,-0.197,-0.2053,-0.2055,-0.2065,-0.2119,-0.2125,-0.2162,-0.2167,-0.2162,-0.2216,-0.222,-0.2253,-0.22,-0.229,-0.2294,-0.2296,-0.2355,-0.2363,-0.2371,0,0,0,0,0,-0.1859,-0.1901,-0.1921,-0.1937,-0.2013,-0.2055,-0.2063,-0.2102,-0.2121,-0.2148,-0.2177,-0.2168,-0.2238,-0.2219,-0.2223,-0.2257,-0.2289,-0.2293,-0.2296,-0.2352,-0.2362,-0.237,0,0,0,0,0,0,-0.1847,-0.1912,-0.1934,-0.1996,-0.2034,-0.2065,-0.2102,-0.2124,-0.2169,-0.2186,-0.219,-0.2197,-0.2253,-0.2249,-0.2227,-0.2295,-0.2261,-0.2266,-0.2302,-0.2311,-0.2319,-0.2312,-0.2201,0,0,0,0,0,-0.186,-0.1911,-0.1959,-0.2011,-0.2036,-0.2075,-0.2104,-0.2131,-0.2167,-0.219,-0.2216,-0.2242,-0.2264,-0.2285,-0.2302,-0.2341,-0.2317,-0.2366,-0.2374,-0.238,-0.2379,-0.2375,-0.2382,-0.231,-0.231,-0.231,0,0,-0.1866,-0.1912,-0.1939,-0.2012,-0.2047,-0.2086,-0.2096,-0.2153,-0.2189,-0.2188,-0.2257,-0.2275,-0.2282,-0.2326,-0.235,-0.2332,-0.2389,-0.2385,-0.239,-0.2385,-0.238,-0.2386,-0.2392,-0.2313,-0.2312,-0.2312,0,0,-0.1887,-0.195,-0.1991,-0.203,-0.2097,-0.2121,-0.2146,-0.2202,-0.2238,-0.2295,-0.2303,-0.2344,-0.2385,-0.2394,-0.2401,-0.2462,-0.2431,-0.2476,-0.2511,-0.2508,-0.2514,-0.2518,-0.2494,-0.2496,-0.2479,-0.2479,-0.2479,0,-0.1893,-0.1955,-0.2007,-0.2054,-0.209,-0.2141,-0.2181,-0.2222,-0.2287,-0.2315,-0.233,-0.2397,-0.2412,-0.2448,-0.2475,-0.2479,-0.2465,-0.2474,-0.2517,-0.2521,-0.2524,-0.2498,-0.2499,-0.2482,-0.2482,-0.2482,-0.2481,0,-0.193,-0.1991,-0.2021,-0.2096,-0.214,-0.2188,-0.2244,-0.2299,-0.2349,-0.2379,-0.2447,-0.247,-0.2503,-0.2521,-0.252,-0.2559,-0.2536,-0.2526,-0.2489,-0.2535,-0.2505,-0.2505,-0.2487,-0.2486,-0.2485,-0.2484,0,0,-0.1907,-0.2023,-0.2037,-0.2075,-0.2169,-0.2202,-0.2277,-0.2342,-0.2387,-0.2454,-0.2501,-0.2555,-0.2572,-0.2581,-0.2589,-0.2597,-0.2615,-0.2581,-0.2579,-0.2549,-0.2597,-0.2428,-0.2411,-0.2615,-0.2616,-0.2616,-0.2565,0,-0.1919,-0.2002,-0.2062,-0.2136,-0.2177,-0.2251,-0.2308,-0.2376,-0.2437,-0.2496,-0.2535,-0.2583,-0.2592,-0.2617,-0.2629,-0.2623,-0.2619,-0.2629,-0.2564,-0.2561,-0.2398,-0.2407,-0.2618,-0.2564,-0.2564,-0.2564,-0.2564,0,-0.1923,-0.1983,-0.2058,-0.2154,-0.2181,-0.2234,-0.2332,-0.2392,-0.2481,-0.2528,-0.2585,-0.2613,-0.2655,-0.2649,-0.2654,-0.2662,-0.2636,-0.2621,-0.2618,-0.2435,-0.2391,-0.251,-0.2564,-0.2564,-0.2564,-0.2564,-0.2564,0,-0.1858,-0.1972,-0.2034,-0.207,-0.2187,-0.2239,-0.2305,-0.2402,-0.2451,-0.255,-0.2584,-0.2639,-0.2663,-0.266,-0.2643,-0.2655,-0.262,-0.2624,-0.244,-0.2428,-0.257,-0.2565,-0.2606,-0.2606,-0.2606,-0.2606,-0.2606,0,-0.1827,-0.1878,-0.2015,-0.2045,-0.2112,-0.2212,-0.2287,-0.2362,-0.2459,-0.2496,-0.2594,-0.2607,-0.2668,-0.2659,-0.2642,-0.2526,-0.2615,-0.2432,-0.2399,-0.2597,-0.2597,-0.2569,-0.2565,-0.2604,-0.2605,-0.2605,-0.2605,0,-0.1736,-0.1834,-0.1903,-0.2039,-0.2082,-0.2131,-0.2263,-0.2305,-0.2419,-0.2469,-0.2499,-0.2584,-0.2566,-0.2587,-0.2567,-0.2491,-0.2422,-0.2356,-0.2552,-0.2533,-0.2233,-0.2234,-0.2142,-0.2136,-0.213,-0.2126,-0.2122,0,-0.1695,-0.1725,-0.1872,-0.1911,-0.1977,-0.2071,-0.2122,-0.2263,-0.2299,-0.2422,-0.2415,-0.2454,-0.2484,-0.2306,-0.2363,-0.2291,-0.2267,-0.2217,-0.2238,-0.2207,-0.2185,-0.2194,-0.2202,-0.2113,-0.2111,-0.211,-0.2109,0,-0.1597,-0.1667,-0.1724,-0.1802,-0.1871,-0.1932,-0.2019,-0.2024,-0.2165,-0.2294,-0.2252,-0.2232,-0.2198,-0.2176,-0.2124,-0.2084,-0.2248,-0.2159,-0.2171,-0.219,-0.217,-0.2156,-0.217,-0.2089,-0.2092,-0.2094,-0.2095,0,-0.1519,-0.1532,-0.1613,-0.1661,-0.1743,-0.1752,-0.1824,-0.1852,-0.1903,-0.2047,-0.2024,-0.2075,-0.2163,-0.2065,-0.2027,-0.1964,-0.1942,-0.1884,-0.191,-0.1931,-0.1887,-0.1833,-0.1603,0,0,0,0,0,-0.143,-0.1425,-0.1461,-0.1504,-0.1578,-0.1618,-0.1729,-0.1806,-0.1942,-0.1852,-0.1931,-0.1893,-0.1836,-0.1871,-0.1759,-0.1935,-0.1952,-0.1798,-0.19,-0.1983,-0.2006,-0.1975,0,0,0,0,0,0,-0.1368,-0.1399,-0.1405,-0.1354,-0.1352,-0.1409,-0.1468,-0.1568,-0.1529,-0.1677,-0.1648,-0.1769,-0.1736,-0.1855,-0.1714,-0.1723,-0.1746,-0.1848,-0.1842,-0.1971,-0.1991,-0.2009,-0.1985,0,0,0,0,0]},{"header":{"parameterUnit":"m.s-1","parameterCategory":2,"la1":30.2991,"la2":30.254,"lo1":-89.0895,"lo2":-89.0444,"dy":0.0017,"dx":0.0017,"nx":28,"ny":28,"refTime":"2025-12-04T03:00:00:Z","depth":"4","parameterNumber":3,"parameterNumberName":"V-component_of_CURRENTS"},"data":[0,0,0,0,0,0,0,0,0,0,0,0,0,0,0,0,0,0,0,0,0,0,0,0,0,0,0,0,0,0,0,0,0,0,0,0,0,0,0,0,0,0,0,0,0,0,0,0,0,0,0,0,0,0,0,0,0,0,-0.0285,-0.0284,0,-0.0205,-0.0204,-0.0203,-0.0157,-0.0157,-0.0157,-0.0157,-0.0044,-0.0041,-0.0038,0,0,0,0,0,0,0,0,0,0,0,0,0,-0.0319,-0.0319,-0.0285,-0.0284,-0.0283,-0.0205,-0.0204,-0.0203,-0.0157,-0.0157,-0.0157,-0.0157,-0.0045,-0.0041,-0.0038,0,0,0,0,0,0,0,0,0,0,0,0,0,-0.0278,-0.0319,-0.0285,-0.0251,-0.0247,-0.0205,-0.0204,-0.0203,-0.0157,-0.0157,-0.0157,-0.0156,-0.0046,-0.0042,-0.0037,-0.0014,0,0,-0.0024,-0.0022,0,0,0,0,0,0,0,0,-0.028,-0.0277,-0.0257,-0.0253,-0.0249,-0.0191,-0.0175,-0.0138,-0.0157,-0.019,-0.0157,-0.0156,-0.0091,-0.0083,-0.0067,-0.0008,-0.0003,-0.0024,-0.0021,-0.0019,-0.0018,0,0,0,0,0,0,0,-0.0283,-0.0279,-0.0252,-0.0256,-0.0251,-0.0213,-0.0208,-0.0167,-0.0141,-0.0187,-0.0184,-0.0177,-0.0088,-0.0072,-0.0064,-0.0002,-0.0024,-0.002,-0.0017,-0.0016,0.009,0.009,0,0,0,0,0,0,-0.0299,-0.0282,-0.0255,-0.025,-0.0266,-0.0213,-0.0207,-0.0209,-0.0142,-0.0132,-0.0177,-0.0175,-0.0079,-0.0069,-0.006,-0.003,-0.0019,-0.0015,-0.0013,0.009,0.009,0.009,0,0,0,0,0,0,-0.03,-0.0298,-0.0258,-0.0264,-0.0257,-0.0214,-0.0216,-0.0208,-0.0194,-0.0135,-0.0124,-0.0172,-0.0079,-0.0066,-0.0027,-0.0026,-0.0013,-0.0009,0.009,0.009,0.009,0.0031,0,0,0,0,0,0,-0.0302,-0.0299,-0.0309,-0.0266,-0.0257,-0.024,-0.0216,-0.0207,-0.019,-0.0187,-0.0127,-0.0116,-0.0078,-0.0034,-0.0023,-0.0019,-0.0006,0.0089,0.009,0.009,0.0033,0.0029,0.0026,0,0,0,0,0,-0.0304,-0.0316,-0.031,-0.0307,-0.0271,-0.0241,-0.0233,-0.02,-0.019,-0.0187,-0.0146,-0.0118,-0.0023,-0.003,-0.0017,-0.0012,0.0089,0.009,0.009,0.0034,0.003,0.0026,0,0,0,0,0,0,-0.0336,-0.0311,-0.0304,-0.0309,-0.0282,-0.0233,-0.0228,-0.0206,-0.0171,-0.0169,-0.0115,-0.0101,-0.0067,-0.0031,-0.004,0.0019,0.0037,0.004,-0.001,-0.0013,-0.0016,-0.0031,-0.0002,0,0,0,0,0,-0.035,-0.0355,-0.032,-0.0326,-0.0315,-0.0274,-0.0259,-0.0237,-0.0199,-0.0184,-0.0142,-0.0096,-0.0054,-0.0028,0.0012,0.0046,0.0083,0.0058,0.0054,0.0051,0.0049,0.0107,0.0108,0.0092,0.0092,0.0092,0,0,-0.0365,-0.0352,-0.0355,-0.0333,-0.031,-0.0299,-0.0265,-0.0247,-0.0236,-0.0177,-0.0151,-0.0108,-0.0049,-0.0013,0.0006,0.0018,0.0075,0.0052,0.0049,0.0048,0.0107,0.0109,0.011,0.0092,0.0092,0.0092,0,0,-0.0389,-0.0386,-0.0393,-0.0377,-0.0349,-0.0323,-0.0322,-0.0278,-0.0257,-0.0226,-0.0181,-0.0138,-0.0077,-0.0031,-0.0,0.0005,0.0052,0.0016,-0.0006,0.005,0.0052,0.0054,0.0097,0.0103,0.0019,0.0019,0.0019,0,-0.0409,-0.0416,-0.039,-0.039,-0.0384,-0.0338,-0.0342,-0.0311,-0.026,-0.0243,-0.0228,-0.0132,-0.0084,-0.003,-0.0028,-0.0003,0.0031,0.0001,0.0045,0.0048,0.0051,0.0095,0.0102,0.0016,0.0017,0.0017,0.0017,0,-0.0432,-0.0441,-0.0444,-0.0434,-0.0422,-0.0419,-0.0378,-0.0359,-0.0331,-0.0295,-0.0244,-0.0174,-0.0116,-0.0092,-0.0057,-0.001,0.0007,0.0029,0.005,0.0049,0.0095,0.0104,0.0012,0.0013,0.0014,0.0015,0,0,-0.0469,-0.0463,-0.0467,-0.0475,-0.0449,-0.0442,-0.0426,-0.0393,-0.0383,-0.0323,-0.0297,-0.0217,-0.0177,-0.0139,-0.0084,-0.0031,0.002,0.0003,0.0007,0.0037,0.0135,0.0116,0.0124,0.0048,0.0049,0.0051,0.0156,0,-0.0497,-0.0521,-0.0504,-0.0525,-0.0533,-0.0497,-0.0489,-0.0453,-0.0412,-0.0373,-0.0289,-0.0245,-0.0194,-0.0167,-0.0105,-0.0012,0.0042,-0.0011,0.014,0.0144,0.0121,0.0134,0.0055,0.0163,0.0165,0.0167,0.0168,0,-0.0522,-0.0539,-0.0569,-0.0579,-0.058,-0.0585,-0.0569,-0.0551,-0.0482,-0.0448,-0.038,-0.0313,-0.0222,-0.0184,-0.0024,-0.0061,0.0028,0.0103,0.0109,0.0118,0.0142,0.017,0.0185,0.0184,0.0183,0.0181,0.018,0,-0.0564,-0.0583,-0.0616,-0.0619,-0.0619,-0.0629,-0.0625,-0.0579,-0.0567,-0.0493,-0.047,-0.0354,-0.0294,-0.0167,-0.0012,-0.0017,0.0163,0.0178,0.0248,0.0248,0.0259,0.0256,0.029,0.029,0.029,0.029,0.0289,0,-0.0596,-0.0623,-0.0644,-0.0663,-0.0706,-0.0684,-0.0707,-0.0679,-0.0638,-0.0619,-0.0514,-0.0464,-0.0287,-0.016,-0.0024,0.0138,0.0159,0.0246,0.0276,0.0231,0.0224,0.0265,0.0261,0.0294,0.0293,0.0292,0.0291,0,-0.0627,-0.064,-0.0684,-0.0711,-0.0727,-0.0757,-0.0776,-0.0781,-0.0734,-0.0703,-0.0682,-0.054,-0.0375,-0.0194,0.0022,0.0115,0.0275,0.033,0.0262,0.0286,0.0324,0.0316,0.0409,0.0409,0.0409,0.041,0.041,0,-0.064,-0.0667,-0.073,-0.077,-0.0789,-0.0831,-0.0859,-0.0836,-0.083,-0.0741,-0.0722,-0.0567,-0.0454,-0.0157,0.002,0.027,0.0304,0.0374,0.0354,0.0317,0.0338,0.0329,0.0321,0.041,0.041,0.041,0.041,0,-0.0666,-0.0695,-0.0733,-0.0821,-0.0872,-0.0916,-0.0945,-0.095,-0.0902,-0.0867,-0.0733,-0.057,-0.0384,-0.0158,0.0034,0.0213,0.0318,0.0376,0.0377,0.0359,0.032,0.0338,0.033,0.0411,0.0411,0.0411,0.0411,0,-0.0685,-0.0725,-0.0786,-0.0855,-0.0928,-0.097,-0.0986,-0.0957,-0.0938,-0.0831,-0.0788,-0.0571,-0.0443,-0.0186,-0.0006,0.0161,0.0199,0.024,0.0248,0.0249,0.0166,0.0091,0.014,0,0,0,0,0,-0.0696,-0.0742,-0.0815,-0.0887,-0.0959,-0.0992,-0.1024,-0.1021,-0.0982,-0.0891,-0.0832,-0.0648,-0.0364,-0.0236,-0.0069,-0.0024,0.0206,0.0171,0.0251,0.0415,0.0414,0.0342,0,0,0,0,0,0,-0.0706,-0.0775,-0.0811,-0.0893,-0.0945,-0.1009,-0.103,-0.1007,-0.0942,-0.0878,-0.0719,-0.0623,-0.0344,-0.045,-0.0067,-0.0017,0.005,0.0311,0.0314,0.0416,0.0415,0.0414,0.0339,0,0,0,0,0]}]]